DW3209 Weather Reports


time (UTC)temp
C
wind
direction
speed
KPH
gust
KPH
rain 1hr
cm
rain 24hr
cm
rain mn
cm
humidity
%
barometer
mb
20210620094246 12 136 0.0 0.0 0.00 0.00 0.00 75 1015.3
20210620092246 12 136 0.0 0.0 0.00 0.00 0.00 74 1015.3
20210620091246 12 119 0.0 0.0 0.00 0.00 0.00 73 1015.3
20210620090247 12 119 0.0 0.0 0.00 0.00 0.00 72 1015.3
20210620083246 13 119 0.0 0.0 0.00 0.00 0.00 70 1015.3
20210620082246 13 119 0.0 0.0 0.00 0.00 0.00 69 1015.3
20210620081246 13 119 0.0 0.0 0.00 0.00 0.00 67 1016.4
20210620080246 13 119 0.0 0.0 0.00 0.00 0.00 66 1016.4
20210620074246 14 119 0.0 0.0 0.00 0.00 0.00 63 1016.4
20210620073246 14 119 0.0 0.0 0.00 0.00 0.00 62 1016.4
20210620072247 14 119 0.0 0.0 0.00 0.00 0.00 58 1016.4
20210620071246 15 119 0.0 0.0 0.00 0.00 0.00 55 1016.4
20210620070246 15 119 0.0 0.0 0.00 0.00 0.00 54 1016.4
20210620065249 16 119 0.0 0.0 0.00 0.00 0.00 54 1016.4
20210620064246 16 138 0.0 0.0 0.00 0.00 0.00 54 1016.4
20210620062249 16 140 0.0 0.0 0.00 0.00 0.00 52 1016.4
20210620061249 16 140 0.0 0.0 0.00 0.00 0.00 52 1016.4
20210620055246 17 138 0.0 0.0 0.00 0.00 0.00 48 1016.4
20210620054246 17 138 0.0 0.0 0.00 0.00 0.00 46 1016.4
20210620051246 17 252 0.0 0.0 0.00 0.00 0.00 43 1017.6
20210620050246 18 252 0.0 0.0 0.00 0.00 0.00 41 1017.6
20210620045249 18 252 0.0 0.0 0.00 0.00 0.00 40 1017.6
20210620043246 18 252 0.0 0.0 0.00 0.00 0.00 37 1017.6
20210620041246 18 248 0.0 0.0 0.00 0.00 0.00 36 1017.6
20210620040246 18 233 0.0 0.0 0.00 0.00 0.00 35 1017.6
20210620035249 19 233 0.0 0.0 0.00 0.00 0.00 34 1017.6
20210620032246 20 233 0.0 0.0 0.00 0.00 0.00 32 1016.4
20210620031246 20 233 0.0 0.0 0.00 0.00 0.00 31 1016.4
20210620030246 21 136 0.0 0.0 0.00 0.00 0.00 29 1016.4
20210620024246 22 278 0.0 0.0 0.00 0.00 0.00 25 1016.4
20210620022246 23 255 0.0 0.0 0.00 0.00 0.00 23 1016.4
20210620021246 23 274 0.0 0.0 0.00 0.00 0.00 23 1016.4
20210620014247 24 270 0.0 0.0 0.00 0.00 0.00 22 1016.4
20210620012246 25 49 0.0 0.0 0.00 0.00 0.00 20 1016.4
20210620011246 25 19 0.0 0.0 0.00 0.00 0.00 18 1016.4
20210620010247 25 339 0.0 0.0 0.00 0.00 0.00 15 1017.6
20210620004246 26 29 0.0 0.0 0.00 0.00 0.00 15 1017.6
20210620002246 27 44 0.0 0.0 0.00 0.00 0.00 14 1017.6
20210620000247 29 25 0.0 0.0 0.00 0.00 0.00 13 1018.7
20210619235246 29 16 0.0 0.0 0.00 0.00 0.00 13 1018.7
20210619233249 28 136 0.0 0.0 0.00 0.00 0.00 14 1018.7
20210619232246 27 141 0.0 0.0 0.00 0.00 0.00 17 1018.7
20210619225250 26 203 0.0 4.8 0.00 0.00 0.00 17 1018.7
20210619224246 26 222 0.0 6.4 0.00 0.00 0.00 17 1018.7
20210619223249 26 284 0.0 4.8 0.00 0.00 0.00 17 1018.7
20210619222249 25 120 4.8 6.4 0.00 0.00 0.00 21 1018.7
20210619215249 23 107 0.0 8.0 0.00 0.00 0.00 23 1019.9
20210619214246 22 288 0.0 6.4 0.00 0.00 0.00 25 1019.9
20210619213246 22 275 0.0 3.2 0.00 0.00 0.00 24 1021.1
20210619210246 22 207 0.0 9.7 0.00 0.00 0.00 32 1021.1
20210619203246 24 116 0.0 6.4 0.00 0.00 0.00 20 1021.1
20210619194246 26 205 0.0 4.8 0.00 0.00 0.00 23 1019.9
20210619192246 26 278 0.0 0.0 0.00 0.00 0.00 23 1019.9
20210619191246 27 278 0.0 0.0 0.00 0.00 0.00 22 1019.9
20210619185246 28 279 0.0 0.0 0.00 0.00 0.00 21 1019.9
20210619183247 28 289 0.0 0.0 0.00 0.00 0.00 21 1019.9
20210619181246 28 224 0.0 4.8 0.00 0.00 0.00 21 1019.9
20210619172246 26 282 0.0 3.2 0.00 0.00 0.00 30 1021.1
20210619170249 25 144 0.0 0.0 0.00 0.00 0.00 31 1021.1
20210619163246 23 276 0.0 0.0 0.00 0.00 0.00 36 1021.1
20210619161246 22 281 0.0 0.0 0.00 0.00 0.00 37 1021.1
20210619155246 21 284 0.0 0.0 0.00 0.00 0.00 42 1021.1
20210619152246 20 189 0.0 0.0 0.00 0.00 0.00 43 1021.1
20210619150246 20 128 0.0 0.0 0.00 0.00 0.00 47 1021.1
20210619145249 20 132 0.0 0.0 0.00 0.00 0.00 48 1021.1
20210619144246 19 203 0.0 0.0 0.00 0.00 0.00 47 1021.1
20210619142246 19 203 0.0 0.0 0.00 0.00 0.00 47 1021.1
20210619141249 19 203 0.0 0.0 0.00 0.00 0.00 47 1021.1
20210619140246 18 203 0.0 0.0 0.00 0.00 0.00 46 1022.2
20210619132246 17 203 0.0 0.0 0.00 0.00 0.00 51 1021.1
20210619130246 17 203 0.0 0.0 0.00 0.00 0.00 54 1021.1
20210619125249 17 203 0.0 0.0 0.00 0.00 0.00 52 1021.1
20210619123246 16 203 0.0 0.0 0.00 0.00 0.00 53 1021.1
20210619121249 16 203 0.0 0.0 0.00 0.00 0.00 51 1021.1
20210619120246 16 203 0.0 0.0 0.00 0.00 0.00 51 1021.1
20210619115246 16 203 0.0 0.0 0.00 0.00 0.00 50 1021.1
20210619113249 16 203 0.0 0.0 0.00 0.00 0.00 50 1021.1
20210619112246 16 203 0.0 0.0 0.00 0.00 0.00 49 1021.1
20210619111249 16 203 0.0 0.0 0.00 0.00 0.00 50 1021.1
20210619110246 16 203 0.0 0.0 0.00 0.00 0.00 49 1021.1
20210619104249 17 203 0.0 0.0 0.00 0.00 0.00 47 1022.2
20210619101249 16 203 0.0 0.0 0.00 0.00 0.00 51 1021.1